[[{"header":{"parameterUnit":"m.s-1","parameterCategory":1,"la1":30.2991,"la2":30.254,"lo1":-89.0895,"lo2":-89.0444,"dy":0.0017,"dx":0.0017,"nx":28,"ny":28,"refTime":"2024-07-26T21:00:00:Z","depth":0,"parameterNumber":2,"parameterNumberName":"U-component_of_WINDS"},"data":[0,0,0,0,0,0,0,0,0,0,0,0,0,0,0,0,0,0,0,0,0,0,0,0,0,0,0,0,0,0,0,0,0,0,0,0,0,0,0,0,0,0,0,0,0,0,0,0,0,0,0,0,0,0,0,0,0,0,0.1962,0.1962,0,0.2037,0.2038,0.2039,0.2081,0.2081,0.2081,0.2081,0.216,0.2162,0.2164,0,0,0,0,0,0,0,0,0,0,0,0,0,0.1853,0.1855,0.1962,0.1962,0.1963,0.2037,0.2038,0.2039,0.2081,0.2081,0.2081,0.2081,0.2159,0.2162,0.2164,0,0,0,0,0,0,0,0,0,0,0,0,0,0.1912,0.1856,0.1961,0.1993,0.1996,0.2037,0.2038,0.204,0.2081,0.2081,0.2081,0.2081,0.2159,0.2162,0.2165,0.218,0,0,0.2174,0.2175,0,0,0,0,0,0,0,0,0.1908,0.1916,0.1987,0.1991,0.1995,0.205,0.2029,0.2087,0.208,0.2049,0.2081,0.2081,0.2123,0.2129,0.2143,0.2184,0.2187,0.2174,0.2176,0.2177,0.2178,0,0,0,0,0,0,0,0.1904,0.1913,0.1992,0.1988,0.1993,0.2003,0.2012,0.204,0.2084,0.2051,0.2055,0.2063,0.2125,0.214,0.2145,0.2188,0.2174,0.2177,0.2178,0.218,0.2246,0.2246,0,0,0,0,0,0,0.1895,0.1909,0.1989,0.1994,0.1951,0.2005,0.2015,0.2032,0.2084,0.2092,0.2063,0.2065,0.2135,0.2142,0.2148,0.217,0.2177,0.218,0.2182,0.2246,0.2246,0.2246,0,0,0,0,0,0,0.1893,0.1902,0.1986,0.1952,0.1964,0.2007,0.2026,0.2033,0.2048,0.2093,0.2101,0.207,0.2135,0.2144,0.2172,0.2173,0.2181,0.2184,0.2246,0.2246,0.2246,0.2213,0,0,0,0,0,0,0.1889,0.1901,0.1907,0.1952,0.1966,0.2008,0.2026,0.2035,0.2053,0.2056,0.2101,0.2109,0.2136,0.2167,0.2175,0.2177,0.2186,0.2246,0.2246,0.2246,0.2214,0.2212,0.221,0,0,0,0,0,0.1885,0.1895,0.1907,0.1916,0.1974,0.2008,0.2016,0.2046,0.2053,0.206,0.2088,0.2107,0.2172,0.217,0.2179,0.2182,0.2246,0.2246,0.2246,0.2215,0.2212,0.221,0,0,0,0,0,0,0.1849,0.1901,0.1915,0.194,0.1969,0.2015,0.2024,0.2042,0.2071,0.2072,0.211,0.212,0.2144,0.2166,0.2162,0.22,0.2211,0.2213,0.2184,0.2182,0.218,0.2174,0.2189,0,0,0,0,0,0.1844,0.1866,0.1911,0.1929,0.1942,0.1981,0.1996,0.2018,0.205,0.2062,0.2093,0.2123,0.2151,0.2168,0.2195,0.2217,0.2228,0.2224,0.2222,0.222,0.2221,0.2234,0.2233,0.2245,0.2245,0.2245,0,0,0.1833,0.1865,0.1877,0.1922,0.1947,0.197,0.1991,0.2014,0.2032,0.2066,0.2094,0.2117,0.2154,0.2179,0.2191,0.2198,0.222,0.222,0.2218,0.222,0.2234,0.2233,0.2232,0.2245,0.2245,0.2245,0,0,0.1826,0.1852,0.1869,0.1894,0.1931,0.1956,0.196,0.2004,0.202,0.2049,0.2075,0.2096,0.2142,0.2167,0.2186,0.2188,0.2206,0.2196,0.2184,0.2196,0.2195,0.2195,0.2195,0.2195,0.2196,0.2196,0.2196,0,0.1808,0.1843,0.1875,0.1897,0.1916,0.1948,0.1966,0.1988,0.2033,0.2046,0.2052,0.211,0.2137,0.2168,0.2169,0.2183,0.2189,0.219,0.2193,0.2193,0.2192,0.2193,0.2193,0.2195,0.2195,0.2195,0.2195,0,0.1819,0.1843,0.1853,0.1894,0.1915,0.1934,0.197,0.1987,0.2006,0.2031,0.2059,0.2092,0.2127,0.2136,0.2156,0.217,0.2173,0.2186,0.2197,0.2189,0.219,0.2191,0.2193,0.2193,0.2194,0.2194,0,0,0.179,0.185,0.1853,0.1872,0.1916,0.1935,0.1956,0.199,0.2003,0.2033,0.2052,0.209,0.2102,0.2123,0.2146,0.2156,0.2155,0.2168,0.217,0.2164,0.2172,0.2162,0.2162,0.2168,0.2168,0.2168,0.2169,0,0.1789,0.1828,0.1858,0.1885,0.1908,0.1938,0.1957,0.1986,0.2009,0.2032,0.2059,0.2085,0.2099,0.2112,0.2124,0.2152,0.2157,0.2153,0.2185,0.2186,0.2175,0.2162,0.2151,0.2151,0.217,0.217,0.217,0,0.1792,0.182,0.185,0.1891,0.1902,0.1918,0.1951,0.1972,0.2006,0.2022,0.2045,0.2069,0.2092,0.2102,0.2135,0.2132,0.2147,0.2163,0.2164,0.2168,0.2177,0.2165,0.2151,0.2151,0.2171,0.2171,0.2171,0,0.1767,0.1813,0.1836,0.1852,0.1901,0.1911,0.1932,0.1966,0.1984,0.2013,0.2025,0.2057,0.2074,0.2098,0.2129,0.2133,0.2159,0.2171,0.2173,0.2172,0.2177,0.2176,0.2164,0.2187,0.2187,0.2187,0.2187,0,0.1762,0.1778,0.1826,0.184,0.186,0.1895,0.1914,0.1937,0.1967,0.1987,0.2015,0.2033,0.2074,0.2096,0.2121,0.2145,0.2152,0.2166,0.2172,0.2163,0.2161,0.2173,0.2174,0.2187,0.2187,0.2187,0.2187,0,0.1737,0.177,0.1797,0.1841,0.1853,0.1866,0.1903,0.1919,0.1944,0.1968,0.1976,0.2016,0.2044,0.2078,0.2117,0.2134,0.2155,0.2165,0.2143,0.2147,0.2147,0.2146,0.2142,0.2143,0.2165,0.2165,0.2165,0,0.1731,0.1745,0.179,0.1805,0.1825,0.185,0.1868,0.1903,0.1921,0.196,0.197,0.2001,0.2027,0.2071,0.2103,0.2134,0.2144,0.214,0.2149,0.2139,0.2143,0.2142,0.2143,0.2138,0.2138,0.2137,0.2137,0,0.1717,0.1732,0.1758,0.1789,0.181,0.1836,0.1864,0.1874,0.1915,0.1933,0.1963,0.1983,0.2023,0.2053,0.2087,0.2109,0.2129,0.2134,0.2136,0.2127,0.2113,0.212,0.2137,0.2134,0.2134,0.2134,0.2135,0.2135,0.1701,0.1715,0.1749,0.1776,0.18,0.1825,0.1842,0.1869,0.1894,0.1929,0.1948,0.1976,0.201,0.2058,0.2079,0.2102,0.2109,0.2112,0.2113,0.2113,0.211,0.211,0.2108,0.2109,0.2109,0.2109,0.2109,0,0.1688,0.1711,0.1736,0.1774,0.1795,0.1813,0.1844,0.1861,0.1885,0.1915,0.194,0.1973,0.2002,0.2037,0.2068,0.208,0.209,0.2087,0.2086,0.2091,0.2102,0.2097,0.2078,0.2078,0.2078,0.2078,0.2078,0.2078,0.1683,0.1707,0.1726,0.1762,0.1786,0.1814,0.183,0.1853,0.1877,0.1913,0.1937,0.1959,0.1991,0.2025,0.2052,0.2061,0.2071,0.2065,0.2077,0.2087,0.209,0.2092,0.2088,0.2067,0.2067,0.2064,0.2064,0.2064]},{"header":{"parameterUnit":"m.s-1","parameterCategory":1,"la1":30.2991,"la2":30.254,"lo1":-89.0895,"lo2":-89.0444,"dy":0.0017,"dx":0.0017,"nx":28,"ny":28,"refTime":"2024-07-26T21:00:00:Z","depth":0,"parameterNumber":3,"parameterNumberName":"V-component_of_WINDS"},"data":[0,0,0,0,0,0,0,0,0,0,0,0,0,0,0,0,0,0,0,0,0,0,0,0,0,0,0,0,0,0,0,0,0,0,0,0,0,0,0,0,0,0,0,0,0,0,0,0,0,0,0,0,0,0,0,0,0,0,3.5688,3.5688,0,3.5658,3.5657,3.5657,3.5649,3.5649,3.5649,3.565,3.5614,3.5612,3.5611,0,0,0,0,0,0,0,0,0,0,0,0,0,3.5735,3.5734,3.5688,3.5688,3.5687,3.5658,3.5657,3.5657,3.5649,3.5649,3.565,3.565,3.5614,3.5613,3.5611,0,0,0,0,0,0,0,0,0,0,0,0,0,3.5711,3.5734,3.5688,3.568,3.5679,3.5658,3.5657,3.5657,3.5649,3.5649,3.565,3.565,3.5614,3.5613,3.5611,3.5594,0,0,3.5606,3.5605,0,0,0,0,0,0,0,0,3.5712,3.5709,3.5682,3.5681,3.5679,3.5658,3.5661,3.5636,3.5649,3.566,3.565,3.565,3.5628,3.5625,3.5618,3.5593,3.5591,3.5606,3.5605,3.5604,3.5603,0,0,0,0,0,0,0,3.5714,3.571,3.5676,3.5681,3.568,3.5676,3.5673,3.5656,3.5642,3.5659,3.5659,3.5655,3.5627,3.562,3.5617,3.5591,3.5606,3.5604,3.5603,3.5602,3.555,3.555,0,0,0,0,0,0,3.5718,3.5712,3.5677,3.5675,3.5697,3.5675,3.5672,3.5664,3.5643,3.564,3.5655,3.5655,3.5623,3.5619,3.5616,3.5596,3.5604,3.5602,3.5601,3.555,3.555,3.555,0,0,0,0,0,0,3.5719,3.5715,3.5678,3.5693,3.5688,3.5674,3.5666,3.5663,3.5657,3.564,3.5637,3.5651,3.5623,3.5619,3.56,3.5594,3.5601,3.56,3.5551,3.555,3.555,3.5554,0,0,0,0,0,0,3.572,3.5715,3.5709,3.5693,3.5688,3.5664,3.5665,3.5663,3.5654,3.5654,3.5635,3.5632,3.5623,3.5603,3.5599,3.5592,3.5599,3.5551,3.5551,3.555,3.5554,3.5554,3.5553,0,0,0,0,0,3.5722,3.5711,3.5709,3.5705,3.5681,3.5664,3.5661,3.5652,3.5654,3.5647,3.5637,3.5632,3.5596,3.5601,3.5596,3.5589,3.5552,3.5551,3.555,3.5555,3.5554,3.5553,0,0,0,0,0,0,3.5725,3.5708,3.5707,3.569,3.5679,3.5663,3.5655,3.5651,3.5638,3.5638,3.5626,3.5622,3.5604,3.5594,3.5601,3.5572,3.5573,3.5572,3.5579,3.5578,3.5577,3.558,3.5597,0,0,0,0,0,3.5724,3.5713,3.5699,3.5686,3.568,3.5669,3.5661,3.5655,3.5642,3.5637,3.5624,3.5611,3.5596,3.5586,3.5572,3.5553,3.5548,3.5546,3.5545,3.5545,3.5543,3.5532,3.5531,3.5547,3.5547,3.5547,0,0,3.5721,3.5711,3.5705,3.5686,3.5677,3.5664,3.5664,3.5651,3.5642,3.5634,3.5617,3.5607,3.5591,3.5573,3.5564,3.5564,3.5538,3.5544,3.5543,3.5542,3.5531,3.553,3.5529,3.5546,3.5546,3.5546,0,0,3.571,3.5702,3.569,3.5681,3.5667,3.566,3.5657,3.5642,3.5636,3.5618,3.5613,3.56,3.5575,3.5564,3.5555,3.5541,3.5536,3.5536,3.5533,3.5523,3.5521,3.552,3.5515,3.5513,3.5535,3.5535,3.5535,0,3.5709,3.5692,3.5684,3.5672,3.5664,3.5659,3.5646,3.5637,3.5618,3.5612,3.5613,3.5582,3.5571,3.555,3.5547,3.5539,3.5535,3.5538,3.5522,3.5521,3.552,3.5515,3.5513,3.5535,3.5535,3.5535,3.5535,0,3.569,3.5678,3.567,3.5655,3.5645,3.5633,3.5623,3.5614,3.561,3.5602,3.5584,3.557,3.5553,3.5548,3.5542,3.5526,3.5526,3.5525,3.5526,3.5519,3.5514,3.5512,3.5535,3.5535,3.5535,3.5535,0,0,3.5679,3.5661,3.5658,3.5651,3.5636,3.5626,3.5613,3.5598,3.5591,3.5578,3.5566,3.5546,3.5545,3.5535,3.5528,3.5519,3.5509,3.5519,3.5518,3.5517,3.5489,3.5491,3.5488,3.5506,3.5505,3.5505,3.5491,0,3.5667,3.5645,3.5639,3.562,3.5609,3.5604,3.5593,3.5581,3.5574,3.5562,3.5552,3.5538,3.5538,3.5532,3.5523,3.5512,3.5503,3.5513,3.5494,3.5493,3.5498,3.5486,3.5487,3.5474,3.5489,3.5488,3.5488,0,3.5649,3.5638,3.5619,3.5606,3.5601,3.5591,3.5577,3.5566,3.5553,3.5548,3.5537,3.5531,3.5516,3.5519,3.5498,3.5505,3.5496,3.549,3.5489,3.5487,3.549,3.5483,3.547,3.5468,3.5485,3.5485,3.5486,0,3.5643,3.5624,3.561,3.5604,3.5588,3.5581,3.5574,3.5561,3.5553,3.554,3.5534,3.5519,3.5511,3.5499,3.5489,3.5492,3.5468,3.547,3.5463,3.5463,3.5457,3.5458,3.5443,3.5453,3.5453,3.5453,3.5453,0,3.563,3.5618,3.5608,3.5599,3.5586,3.5578,3.5565,3.5557,3.5546,3.5534,3.5528,3.5518,3.5505,3.5493,3.5484,3.5468,3.5464,3.5459,3.5457,3.5459,3.546,3.5453,3.5454,3.5452,3.5452,3.5452,3.5452,0,3.5621,3.5614,3.5598,3.5585,3.5582,3.5572,3.556,3.5551,3.5544,3.553,3.5526,3.5513,3.5498,3.5487,3.5467,3.5461,3.5444,3.5442,3.5449,3.5448,3.5441,3.5442,3.5421,3.5418,3.543,3.543,3.543,0,3.5613,3.5604,3.5591,3.5584,3.5577,3.5566,3.5558,3.5549,3.5541,3.5526,3.5518,3.5503,3.5491,3.5467,3.5455,3.5439,3.5437,3.543,3.5434,3.5437,3.5436,3.5437,3.5436,3.543,3.543,3.543,3.5429,0,3.5599,3.5596,3.5586,3.5574,3.5565,3.5555,3.5544,3.5539,3.5528,3.5519,3.5505,3.5495,3.5476,3.546,3.5444,3.5435,3.543,3.5429,3.5426,3.5428,3.5433,3.5431,3.5447,3.5429,3.5429,3.5429,3.5429,3.5429,3.559,3.5582,3.5572,3.5561,3.5552,3.5543,3.5534,3.5526,3.5515,3.55,3.5495,3.548,3.5466,3.5444,3.5435,3.5422,3.5422,3.5419,3.5418,3.5417,3.5417,3.5436,3.5419,3.5419,3.5419,3.5419,3.5419,0,3.5576,3.557,3.5559,3.5546,3.5537,3.5535,3.5524,3.5516,3.5503,3.5492,3.548,3.5464,3.5449,3.5437,3.5421,3.5413,3.5411,3.5409,3.541,3.5408,3.5418,3.5422,3.5412,3.5412,3.5412,3.5412,3.5412,3.5412,3.5568,3.5555,3.5551,3.5533,3.5526,3.5513,3.5507,3.5498,3.5489,3.5471,3.546,3.5452,3.544,3.5424,3.541,3.5407,3.5401,3.5401,3.5396,3.5406,3.5407,3.5408,3.5411,3.5399,3.5399,3.5387,3.5387,3.5387]}]]